Tallahassee, FL

9:59 PM EDT on April 30, 2017 (GMT -0400)
Tallahassee Regional

Weather History for KTLH - June, 2013

Change the Weather History Date:

Sunday, June 30, 2013

  Actual Average Record
Temperature  
Mean Temperature 80 °F 82 °F  
Max Temperature 87 °F 92 °F 102 °F (1998)
Min Temperature 72 °F 71 °F 58 °F (1974)
Degree Days  
Heating Degree Days 0    
Month to date heating degree days 0  
Since 1 June heating degree days 0  
Since 1 July heating degree days 1332  
Cooling Degree Days 15    
Month to date cooling degree days 520  
Year to date cooling degree days 982  
Since 1 June cooling degree days 520  
Growing Degree Days 29 (Base 50)    
Moisture  
Dew Point 71 °F    
Average Humidity 78    
Maximum Humidity 94    
Minimum Humidity 61    
Precipitation  
Precipitation 0.42 in 0.26 in 2.42 in (1955)
Month to date precipitation 7.32 7.73  
Year to date precipitation 29.71 29.39  
Sea Level Pressure  
Sea Level Pressure 29.77 in    
Wind  
Wind Speed 6 mph (SSW)    
Max Wind Speed 28 mph    
Max Gust Speed 63 mph    
Visibility 9 miles    
Events Rain , Thunderstorm    
T = Trace of Precipitation, MM = Missing Value Source: NWS Daily Summary

Daily Weather History Graph

Daily Weather History Graph

Search for Another Location

Airport or City:

Trip Planner

Search our weather history database for the weather conditions in past years. The results will help you decide how hot, cold, wet, or windy it might be!

Date:

Astronomy

Jun. 30, 2013 Rise Set
Actual Time 6:38 AM EDT 8:43 PM EDT
Civil Twilight 6:11 AM EDT 9:11 PM EDT
Nautical Twilight 5:37 AM EDT 9:44 PM EDT
Astronomical Twilight 5:01 AM EDT 10:20 PM EDT
Moon 1:16 AM EDT (6/30) 2:15 PM EDT (6/30)
Length of Visible Light 14h 59m
Length of Day
14h 04m
Last Quarter, 45% of the Moon is Illuminated
Jun 30
Last Quarter
Jul 8
New
Jul 15
First Quarter
Jul 22
Full
Jul 29
Last Quarter

Hourly Weather History & Observations

Time (EDT) Temp. Heat Index Dew Point Humidity Pressure Visibility Wind Dir Wind Speed Gust Speed Precip Events Conditions
12:53 AM 75.9 °F - 72.0 °F 87% 29.78 in 10.0 mi Calm Calm - N/A   Clear
1:53 AM 75.0 °F - 72.0 °F 90% 29.77 in 10.0 mi Calm Calm - N/A   Clear
2:53 AM 73.9 °F - 71.1 °F 91% 29.76 in 10.0 mi Calm Calm - N/A   Clear
3:53 AM 75.0 °F - 72.0 °F 90% 29.74 in 10.0 mi SSW 3.5 mph - N/A   Clear
4:42 AM 75.2 °F - 71.6 °F 89% 29.74 in 10.0 mi South 3.5 mph 63.3 mph N/A   Squalls
4:53 AM 75.9 °F - 73.0 °F 91% 29.74 in 10.0 mi Calm Calm - N/A   Clear
5:04 AM 75.2 °F - 71.6 °F 89% 29.75 in 10.0 mi Calm Calm - N/A Thunderstorm Partly Cloudy
5:19 AM 75.2 °F - 73.4 °F 94% 29.75 in 10.0 mi SSW 9.2 mph - N/A   Clear
5:53 AM 75.9 °F - 72.0 °F 87% 29.75 in 10.0 mi SSW 5.8 mph - N/A   Partly Cloudy
6:53 AM 75.0 °F - 70.0 °F 84% 29.77 in 10.0 mi SSW 6.9 mph - N/A   Scattered Clouds
7:53 AM 75.0 °F - 71.1 °F 87% 29.78 in 10.0 mi Calm Calm - N/A   Scattered Clouds
8:53 AM 77.0 °F - 72.0 °F 84% 29.79 in 10.0 mi SSW 4.6 mph - N/A   Overcast
9:53 AM 82.0 °F 87.4 °F 73.0 °F 74% 29.78 in 10.0 mi SW 9.2 mph - N/A   Mostly Cloudy
10:53 AM 86.0 °F 92.2 °F 72.0 °F 63% 29.77 in 10.0 mi SSW 8.1 mph - N/A   Scattered Clouds
11:23 AM 86.0 °F 91.8 °F 71.6 °F 62% 29.78 in 10.0 mi SSW 5.8 mph - N/A Thunderstorm Thunderstorm
11:42 AM 84.2 °F 89.6 °F 71.6 °F 66% 29.77 in 10.0 mi SW 5.8 mph - 0.00 in Rain , Thunderstorm Light Thunderstorms and Rain
11:53 AM 82.9 °F 88.8 °F 73.0 °F 72% 29.78 in 10.0 mi South 12.7 mph - 0.00 in Thunderstorm Thunderstorm
12:15 PM 78.8 °F - 69.8 °F 74% 29.77 in 10.0 mi South 9.2 mph - N/A Thunderstorm Thunderstorm
12:53 PM 82.9 °F 87.5 °F 71.1 °F 67% 29.78 in 10.0 mi South 8.1 mph - N/A Thunderstorm Thunderstorm
1:25 PM 84.2 °F 88.4 °F 69.8 °F 62% 29.77 in 10.0 mi North 3.5 mph - N/A   Mostly Cloudy
1:53 PM 86.0 °F 92.2 °F 72.0 °F 63% 29.75 in 10.0 mi South 13.8 mph 18.4 mph N/A Thunderstorm Thunderstorm
2:44 PM 75.2 °F - 69.8 °F 83% 29.76 in 10.0 mi SSW 3.5 mph - 0.10 in Thunderstorm Thunderstorm
2:53 PM 77.0 °F - 69.1 °F 76% 29.76 in 10.0 mi South 3.5 mph - 0.10 in Thunderstorm Thunderstorm
3:04 PM 78.8 °F - 69.8 °F 74% 29.76 in 10.0 mi SSW 3.5 mph - N/A   Scattered Clouds
3:53 PM 82.0 °F 87.9 °F 73.9 °F 76% 29.72 in 10.0 mi SSE 6.9 mph - N/A   Scattered Clouds
4:44 PM 84.2 °F 92.3 °F 75.2 °F 74% 29.75 in 10.0 mi South 6.9 mph - N/A   Mostly Cloudy
4:53 PM 84.0 °F 91.2 °F 73.9 °F 72% 29.75 in 10.0 mi South 9.2 mph - N/A   Mostly Cloudy
5:39 PM 84.2 °F 90.9 °F 73.4 °F 70% 29.72 in 10.0 mi South 10.4 mph - 0.00 in Rain Light Rain
5:53 PM 84.9 °F 91.4 °F 73.0 °F 67% 29.72 in 10.0 mi South 10.4 mph - 0.00 in   Scattered Clouds
6:53 PM 82.9 °F 87.5 °F 71.1 °F 67% 29.73 in 10.0 mi South 13.8 mph - N/A   Scattered Clouds
7:53 PM 75.9 °F - 70.0 °F 82% 29.76 in 7.0 mi WNW 12.7 mph - 0.00 in Rain Light Rain
7:58 PM 75.2 °F - 69.8 °F 83% 29.77 in 6.0 mi West 11.5 mph - 0.01 in Rain Light Rain
8:05 PM 73.4 °F - 71.6 °F 94% 29.78 in 1.8 mi West 11.5 mph - 0.03 in Rain Light Rain
8:23 PM 73.4 °F - 69.8 °F 88% 29.78 in 3.0 mi WSW 4.6 mph - 0.31 in Rain Rain
8:43 PM 73.4 °F - 69.8 °F 88% 29.78 in 10.0 mi Calm Calm - 0.32 in   Mostly Cloudy
8:53 PM 73.0 °F - 70.0 °F 90% 29.78 in 10.0 mi NE 3.5 mph - 0.32 in   Mostly Cloudy
9:53 PM 73.0 °F - 70.0 °F 90% 29.79 in 10.0 mi ESE 3.5 mph - N/A   Partly Cloudy
10:53 PM 72.0 °F - 70.0 °F 93% 29.81 in 10.0 mi Calm Calm - N/A   Partly Cloudy
11:24 PM 73.4 °F - 69.8 °F 88% 29.82 in 10.0 mi Calm Calm - N/A   Scattered Clouds
11:37 PM 71.6 °F - 69.8 °F 94% 29.81 in 10.0 mi Calm Calm - N/A   Mostly Cloudy
11:53 PM 73.0 °F - 70.0 °F 90% 29.81 in 4.0 mi ESE 4.6 mph - N/A   Overcast